N.E. Airport METARS
                                                                                                                                                                                                                                                                                                              KCGF   121245Z 11005KT 10SM FEW030 19/14 A3019                                KCLE   121251Z 00000KT 10SM FEW040 20/13 A3018 RMK AO2 SLP232 T02000133 $                                KBKL   121253Z 09005KT 10SM CLR 21/13 A3018 RMK AO2 SLP218 T02110133                                KLNN   121255Z AUTO 11003KT 10SM CLR 20/12 A3019 RMK AO1 T01990123                                KYNG   121251Z 03006KT 10SM FEW038 18/13 A3019 RMK AO2 SLP219 T01830133                                KPOV   121255Z AUTO 05004KT 10SM CLR 18/13 A3019 RMK AO2 T01840131 PWINO                                                                                                                                                                                                                                                                                                                                          
10 Latest QSO's Are:
  3D2AJT(FT8, FIJI)    SP3HDU(FT8, POLAND)    VA7GEM(FT8, CANADA, BC)    W8FAA(FT8, UNITED STATES, OH)    OK1WCF(FT8, CZECH REPUBLIC)    K0MCW(FT8, UNITED STATES, CO)    K7CTV(FT8, UNITED STATES, AZ)    NP4JL(FT8, UNITED STATES, FL)    IK4TVP(FT8, ITALY)    RX6FN(FT8, EUROPEAN RUSSIA)    

Untitled Document   HOME PAGE

 

MAIN TOPICS

 

  Aviation   Operating Modes   SDR   Slow Scan TV   My Logbook   Awards   My Station   Weather   My Projects   Miscellaneous

 

ABOUT

 

  N8MDP   Contact Me

 

CQ CQ CQ

 

If you have a question or a comment. please do not hesitate to ask here.

 

 

The Love of Flying

 

One of my greatest passions was to learn how to fly. It must have been the inspiration of going to many airshows, having my parents take me to the Cleveland Hopkins International Airport on Sunday's to watch airplanes. My mon once told me that when I was young, one of the first multiple syllable words I learned to say was "United". Gee I wonder why? Back in the early 60's, United was one of the big carriers at the airport. I remember seeing the DC-6's, Viscounts, Caravelles, and even United's Boeing 720 jets. What a thrill. If memory serves, I believe I recall seeing United's unveiling of the 727 in Cleveland where they had an open house to view the plane. Ah the memories.

 

Air shows were big in our family, especially the Cleveland National Air Show and Air Races. To watch the races was like watching car races. You could hear the people rooting for the pilots. To me, walking around the planes, and seeing so many flyovers was the thrill. Even today, I have vivid memories of seeing flyovers by planes including the B-58 Hustler, Concorde, Vulcan Bomber, F-115 Stealth Fighter, B-52 Bombers, and so many more.

 

Meeting pilots was just as fun. I remember having the opportunity to meet Arnold Palmer, the legendary Bob Hoover, Dean Ortner (local P51 pilot), Corky Fornof, and all the military pilots who welcomed young people to talk to them.

 

My love of flying never ended even though I was unable to take lessons. My job and family vacations has given me the opportunity to fly all over the world and on many different planes. The list is long: 717, 727, 737, 747, 757, 767, 777, 787, DC-3, DC-8, DC-9, Lockheed Electra, Twin Otter, Saab 340, Avro RJ85, Embrair RJ-135, RJ-145, RJ-175, Bombardier CRJ-100/200, CRJ-700, and Airbus A310, A320, A330. Today, I am a Million Miler traveler on United. The perks are nice!

 

Now that I have my Private Pilot's License, I'll be able to take to the skies and do my own flying and be part of a great group of people. The only thing you have to remember is this. What makes an airplane fly? Money!

 

 

 

Back to top of page

 

Useful Information

 

Local ADS-B Virtual Radar Sweep

radar

 

METARs for my local airports:

 

Cuyahoga County Airport (KCGF)

 

Cleveland Hopkins International (KCLE)

 

Lake County Executive Airport (KLNN)

 

Burke Lakefront Airport (KBKL)

 

Youngstown-Warren Regional Airport (KYNG)

 

Akron-Canton Regional Airport (KCAK)

 

|   Home   |    N8MDP   |    Aviation   |    Projects   |    Weather   |   Logbook    |    Contact   |


© 2022 , Jonathan Tucker N8MDP. All Rights Reserved.